Time,TemperatureF,DewpointF,PressureIn,WindDirection,WindDirectionDegrees,WindSpeedMPH,WindSpeedGustMPH,Humidity,HourlyPrecipIn,Conditions,Clouds,dailyrainin,SoftwareType,DateUTC
2014-01-14 00:28:00,43.5,40.2,29.84,SW,222,0.0,0.0,88,0.00,,-RA,0.00,VWS V12.07,2014-01-14 05:28:00,
2014-01-14 00:58:00,43.3,40.6,29.82,SW,222,0.0,0.0,90,0.00,,OVC030,0.00,VWS V12.07,2014-01-14 05:58:00,
2014-01-14 01:28:00,42.9,40.7,29.80,SW,222,0.0,0.0,92,0.00,,OVC030,0.00,VWS V12.07,2014-01-14 06:28:00,
2014-01-14 01:58:00,43.3,41.1,29.79,SW,222,0.0,0.0,92,0.00,,-RA,0.00,VWS V12.07,2014-01-14 06:58:00,
2014-01-14 02:28:00,43.9,41.5,29.78,SW,222,0.0,0.0,91,0.00,,-RA,0.00,VWS V12.07,2014-01-14 07:28:00,
2014-01-14 02:58:00,43.8,41.3,29.77,SW,222,2.0,2.0,91,0.00,,-RA,0.00,VWS V12.07,2014-01-14 07:58:00,
2014-01-14 03:28:00,43.5,41.3,29.75,SW,224,0.0,0.0,92,0.00,,-RA,0.00,VWS V12.07,2014-01-14 08:28:00,
2014-01-14 03:58:00,43.3,41.1,29.74,SW,224,0.0,0.0,92,0.00,,-RA,0.00,VWS V12.07,2014-01-14 08:58:00,
2014-01-14 04:28:00,43.6,41.7,29.74,SW,224,0.0,0.0,93,0.00,,-RA,0.00,VWS V12.07,2014-01-14 09:28:00,
2014-01-14 04:58:00,43.8,41.6,29.73,SW,224,0.0,0.0,92,0.00,,,0.00,VWS V12.07,2014-01-14 09:58:00,
2014-01-14 05:28:00,44.2,42.0,29.73,SW,224,0.0,0.0,92,0.00,,,0.00,VWS V12.07,2014-01-14 10:28:00,
2014-01-14 05:58:00,43.3,41.4,29.73,SSE,167,0.0,1.0,93,0.00,,-RA,0.00,VWS V12.07,2014-01-14 10:58:00,
2014-01-14 06:28:00,43.3,41.7,29.71,SSE,167,0.0,0.0,94,0.00,,-RA,0.00,VWS V12.07,2014-01-14 11:28:00,
2014-01-14 06:58:00,43.3,41.7,29.73,WNW,289,1.0,2.0,94,0.00,,-RA,0.00,VWS V12.07,2014-01-14 11:58:00,
2014-01-14 07:28:00,43.3,42.0,29.73,WNW,288,0.0,0.0,95,0.00,,-RA,0.00,VWS V12.07,2014-01-14 12:28:00,
2014-01-14 07:58:00,43.3,41.7,29.73,WNW,289,0.0,0.0,94,0.00,,-RA,0.00,VWS V12.07,2014-01-14 12:58:00,
2014-01-14 08:28:00,43.6,42.3,29.74,WNW,289,0.0,0.0,95,0.00,,-RA,0.00,VWS V12.07,2014-01-14 13:28:00,
2014-01-14 08:58:00,44.1,42.8,29.75,WNW,288,0.0,0.0,95,0.00,,-RA,0.00,VWS V12.07,2014-01-14 13:58:00,
2014-01-14 09:28:00,44.5,43.2,29.78,WNW,288,0.0,0.0,95,0.00,,-RA,0.00,VWS V12.07,2014-01-14 14:28:00,
2014-01-14 09:58:00,44.6,43.3,29.79,WNW,289,0.0,0.0,95,0.00,,-RA,0.00,VWS V12.07,2014-01-14 14:58:00,
2014-01-14 10:28:00,45.8,44.5,29.77,North,4,0.0,0.0,95,0.00,,-RA,0.00,VWS V12.07,2014-01-14 15:28:00,
2014-01-14 10:58:00,46.4,45.0,29.75,SSW,193,0.0,0.0,95,0.00,,OVC080,0.00,VWS V12.07,2014-01-14 15:58:00,
2014-01-14 11:28:00,48.0,45.5,29.73,WSW,239,1.0,3.0,91,0.00,,OVC080,0.00,VWS V12.07,2014-01-14 16:28:00,
2014-01-14 11:58:00,49.5,41.9,29.74,NNW,335,4.0,5.0,75,0.00,,BKN060,0.00,VWS V12.07,2014-01-14 16:58:00,
2014-01-14 12:28:00,52.3,38.8,29.75,West,272,1.0,3.0,60,0.00,,BKN060,0.00,VWS V12.07,2014-01-14 17:28:00,
2014-01-14 12:58:00,55.4,36.1,29.75,WNW,282,1.0,5.0,48,0.00,,CLR,0.00,VWS V12.07,2014-01-14 17:58:00,
2014-01-14 13:28:00,56.6,30.6,29.76,WSW,257,6.0,6.0,37,0.00,,CLR,0.00,VWS V12.07,2014-01-14 18:28:00,
2014-01-14 13:58:00,56.7,30.7,29.75,SW,229,3.0,6.0,37,0.00,,FEW041,0.00,VWS V12.07,2014-01-14 18:58:00,
2014-01-14 14:28:00,55.1,28.0,29.76,WSW,241,3.0,6.0,35,0.00,,FEW041,0.00,VWS V12.07,2014-01-14 19:28:00,
2014-01-14 14:58:00,55.1,28.0,29.76,WNW,285,4.0,4.0,35,0.00,,CLR,0.00,VWS V12.07,2014-01-14 19:58:00,
2014-01-14 15:28:00,57.0,25.9,29.77,West,274,0.0,1.0,30,0.00,,CLR,0.00,VWS V12.07,2014-01-14 20:28:00,
2014-01-14 15:58:00,57.6,24.8,29.79,NNW,328,2.0,2.0,28,0.00,,FEW055,0.00,VWS V12.07,2014-01-14 20:58:00,
2014-01-14 16:28:00,56.9,24.1,29.78,WSW,239,1.0,1.0,28,0.00,,FEW055,0.00,VWS V12.07,2014-01-14 21:28:00,
2014-01-14 16:58:00,53.9,24.0,29.80,West,280,1.0,2.0,31,0.00,,CLR,0.00,VWS V12.07,2014-01-14 21:58:00,
2014-01-14 17:28:00,52.2,25.4,29.81,WNW,284,0.0,0.0,35,0.00,,CLR,0.00,VWS V12.07,2014-01-14 22:28:00,
2014-01-14 17:58:00,49.5,26.8,29.83,WNW,284,0.0,0.0,41,0.00,,CLR,0.00,VWS V12.07,2014-01-14 22:58:00,
2014-01-14 18:28:00,46.8,28.7,29.85,WNW,284,1.0,1.0,49,0.00,,CLR,0.00,VWS V12.07,2014-01-14 23:28:00,
2014-01-14 18:58:00,43.1,30.6,29.86,WNW,288,0.0,0.0,61,0.00,,CLR,0.00,VWS V12.07,2014-01-14 23:58:00,
2014-01-14 19:28:00,41.8,29.4,29.86,WNW,288,0.0,0.0,61,0.00,,CLR,0.00,VWS V12.07,2014-01-15 00:28:00,
2014-01-14 19:58:00,40.5,29.3,29.89,NNW,339,0.0,0.0,64,0.00,,CLR,0.00,VWS V12.07,2014-01-15 00:58:00,
2014-01-14 20:28:00,38.8,29.9,29.90,NNE,32,0.0,0.0,70,0.00,,CLR,0.00,VWS V12.07,2014-01-15 01:28:00,
2014-01-14 20:58:00,38.2,29.3,29.90,NNE,32,0.0,0.0,70,0.00,,CLR,0.00,VWS V12.07,2014-01-15 01:58:00,
2014-01-14 21:28:00,36.8,29.3,29.90,North,4,0.0,0.0,74,0.00,,CLR,0.00,VWS V12.07,2014-01-15 02:28:00,
2014-01-14 21:58:00,35.5,29.0,29.90,North,0,0.0,0.0,77,0.00,,CLR,0.00,VWS V12.07,2014-01-15 02:58:00,
2014-01-14 22:28:00,34.7,28.9,29.90,North,0,0.0,0.0,79,0.00,,CLR,0.00,VWS V12.07,2014-01-15 03:28:00,
2014-01-14 22:58:00,33.5,28.0,29.90,North,0,0.0,0.0,80,0.00,,CLR,0.00,VWS V12.07,2014-01-15 03:58:00,
2014-01-14 23:28:00,33.2,27.7,29.89,North,0,0.0,0.0,80,0.00,,CLR,0.00,VWS V12.07,2014-01-15 04:28:00,
2014-01-14 23:58:00,32.8,27.3,29.89,North,0,0.0,0.0,80,0.00,,CLR,0.00,VWS V12.07,2014-01-15 04:58:00,